EW0532 Weather Reports


time (UTC)temp
C
wind
direction
speed
KPH
gust
KPH
rain 1hr
cm
rain 24hr
cm
rain mn
cm
humidity
%
barometer
mb
20260504050507 9 153 1.6 6.4 0.00 0.00 0.00 49 1013.0
20260504050020 9 165 1.6 8.0 0.00 0.00 0.00 49 1013.0
20260504045509 9 166 1.6 8.0 0.00 0.00 0.00 49 1013.1
20260504045008 9 162 1.6 8.0 0.00 0.00 0.00 49 1013.1
20260504044527 10 190 0.0 9.7 0.00 0.00 0.00 48 1013.0
20260504044011 10 183 3.2 9.7 0.00 0.00 0.00 48 1013.1
20260504043505 10 150 1.6 8.0 0.00 0.00 0.00 47 1013.0
20260504043016 10 182 0.0 6.4 0.00 0.00 0.00 47 1012.9
20260504042505 10 185 0.0 3.2 0.00 0.00 0.00 46 1012.8
20260504042006 10 185 0.0 8.0 0.00 0.00 0.00 47 1012.8
20260504041511 10 185 0.0 8.0 0.00 0.00 0.00 46 1012.8
20260504041005 10 185 1.6 8.0 0.00 0.00 0.00 46 1012.8
20260504040506 10 122 0.0 8.0 0.00 0.00 0.00 46 1012.7
20260504040010 10 149 3.2 8.0 0.00 0.00 0.00 45 1012.7
20260504035507 10 180 0.0 8.0 0.00 0.00 0.00 46 1012.7
20260504035013 10 180 1.6 8.0 0.00 0.00 0.00 44 1012.6
20260504034534 10 182 0.0 4.8 0.00 0.00 0.00 44 1012.6
20260504034006 10 184 1.6 4.8 0.00 0.00 0.00 44 1012.7
20260504033508 10 182 0.0 4.8 0.00 0.00 0.00 45 1012.7
20260504033025 10 182 0.0 3.2 0.00 0.00 0.00 44 1012.7
20260504032509 10 183 0.0 3.2 0.00 0.00 0.00 44 1012.8
20260504032008 11 188 0.0 8.0 0.00 0.00 0.00 44 1012.7
20260504031524 11 188 0.0 8.0 0.00 0.00 0.00 43 1012.7
20260504031006 11 188 1.6 8.0 0.00 0.00 0.00 43 1012.7
20260504030505 10 159 0.0 3.2 0.00 0.00 0.00 43 1012.7
20260504030033 10 136 0.0 9.7 0.00 0.00 0.00 43 1012.7
20260504025512 10 129 0.0 9.7 0.00 0.00 0.00 44 1012.7
20260504025007 10 302 0.0 4.8 0.00 0.00 0.00 45 1012.7
20260504024518 10 302 0.0 4.8 0.00 0.00 0.00 46 1012.6
20260504024014 9 334 0.0 3.2 0.00 0.00 0.00 47 1012.7
20260504023509 9 334 0.0 1.6 0.00 0.00 0.00 47 1012.7
20260504023012 8 334 0.0 0.0 0.00 0.00 0.00 51 1012.7
20260504022509 8 334 0.0 0.0 0.00 0.00 0.00 51 1012.7
20260504022011 8 334 0.0 0.0 0.00 0.00 0.00 54 1012.7
20260504021527 8 334 0.0 0.0 0.00 0.00 0.00 54 1012.7
20260504021007 8 334 0.0 0.0 0.00 0.00 0.00 56 1012.8
20260504020508 8 334 0.0 0.0 0.00 0.00 0.00 57 1012.8
20260504020027 8 334 0.0 0.0 0.00 0.00 0.00 56 1012.8
20260504015507 9 334 0.0 0.0 0.00 0.00 0.00 55 1012.7
20260504015007 9 334 0.0 1.6 0.00 0.00 0.00 54 1012.7
20260504014532 9 334 0.0 1.6 0.00 0.00 0.00 54 1012.6
20260504014010 9 334 0.0 0.0 0.00 0.00 0.00 52 1012.5
20260504013507 10 334 0.0 1.6 0.00 0.00 0.00 52 1012.5
20260504013023 10 334 0.0 1.6 0.00 0.00 0.00 52 1012.4
20260504012503 10 334 0.0 1.6 0.00 0.00 0.00 53 1012.4
20260504012004 10 334 0.0 1.6 0.00 0.00 0.00 52 1012.4
20260504011504 11 334 0.0 1.6 0.00 0.00 0.00 51 1012.4
20260504011004 11 334 0.0 1.6 0.00 0.00 0.00 48 1012.3
20260504010504 11 334 0.0 0.0 0.00 0.00 0.00 46 1012.2
20260504010010 11 334 0.0 0.0 0.00 0.00 0.00 44 1012.1
20260504005505 12 334 0.0 3.2 0.00 0.00 0.00 44 1012.0
20260504005004 12 334 0.0 3.2 0.00 0.00 0.00 39 1011.9
20260504004514 12 335 0.0 3.2 0.00 0.00 0.00 39 1011.8
20260504004007 12 335 0.0 3.2 0.00 0.00 0.00 38 1011.8
20260504003504 12 335 0.0 4.8 0.00 0.00 0.00 38 1011.8
20260504003021 12 335 0.0 4.8 0.00 0.00 0.00 37 1011.8
20260504002507 12 335 0.0 3.2 0.00 0.00 0.00 37 1011.6
20260504002003 13 335 0.0 6.4 0.00 0.00 0.00 36 1011.5
20260504001504 13 335 0.0 6.4 0.00 0.00 0.00 35 1011.5
20260504001003 13 328 0.0 6.4 0.00 0.00 0.00 35 1011.4
20260504000503 13 321 1.6 6.4 0.00 0.00 0.00 35 1011.4
20260504000005 13 321 0.0 6.4 0.00 0.00 0.00 34 1011.4
20260503235503 13 325 1.6 6.4 0.00 0.00 0.00 34 1011.3
20260503235006 13 325 0.0 8.0 0.00 0.00 0.00 34 1011.3
20260503234529 14 325 1.6 14.5 0.00 0.00 0.00 33 1011.2
20260503234003 14 320 4.8 14.5 0.00 0.00 0.00 32 1011.3
20260503233507 14 5 4.8 12.9 0.00 0.00 0.00 32 1011.2
20260503233016 14 308 3.2 6.4 0.00 0.00 0.00 32 1011.1
20260503232504 14 228 1.6 12.9 0.00 0.00 0.00 31 1011.1
20260503232004 14 336 1.6 16.1 0.00 0.00 0.00 31 1011.1
20260503231516 14 319 8.0 16.1 0.00 0.00 0.00 31 1011.0
20260503231009 14 306 4.8 12.9 0.00 0.00 0.00 31 1010.9
20260503230504 14 318 3.2 14.5 0.00 0.00 0.00 31 1011.0
20260503230004 14 343 4.8 14.5 0.00 0.00 0.00 30 1011.0
20260503225504 15 349 4.8 14.5 0.00 0.00 0.00 30 1010.9
20260503225005 15 326 6.4 16.1 0.00 0.00 0.00 31 1010.9
20260503224509 15 348 3.2 16.1 0.00 0.00 0.00 30 1010.8
20260503224005 15 314 4.8 19.3 0.00 0.00 0.00 30 1010.7
20260503223507 15 326 8.0 19.3 0.00 0.00 0.00 29 1010.8
20260503223009 15 340 4.8 19.3 0.00 0.00 0.00 30 1010.8
20260503222503 15 323 9.7 20.9 0.00 0.00 0.00 29 1010.8
20260503222007 15 303 3.2 20.9 0.00 0.00 0.00 29 1010.7
20260503221519 15 289 0.0 14.5 0.00 0.00 0.00 30 1010.8
20260503221006 15 360 1.6 24.1 0.00 0.00 0.00 30 1010.8
20260503220511 15 52 6.4 24.1 0.00 0.00 0.00 29 1010.8
20260503220024 15 320 8.0 24.1 0.00 0.00 0.00 29 1010.8
20260503215504 15 319 0.0 27.4 0.00 0.00 0.00 30 1010.8
20260503215003 15 304 8.0 27.4 0.00 0.00 0.00 27 1010.9
20260503214507 15 317 8.0 24.1 0.00 0.00 0.00 28 1010.9
20260503214004 15 330 4.8 19.3 0.00 0.00 0.00 29 1010.9
20260503213508 15 305 6.4 30.6 0.00 0.00 0.00 29 1010.8
20260503213012 15 321 11.3 30.6 0.00 0.00 0.00 27 1010.8
20260503212506 15 317 3.2 24.1 0.00 0.00 0.00 28 1010.7
20260503212004 15 279 8.0 25.7 0.00 0.00 0.00 31 1010.7
20260503211516 15 345 8.0 25.7 0.00 0.00 0.00 28 1010.7
20260503211006 15 340 6.4 22.5 0.00 0.00 0.00 29 1010.7
20260503210510 15 337 3.2 20.9 0.00 0.00 0.00 29 1010.6
20260503210011 15 315 6.4 27.4 0.00 0.00 0.00 30 1010.7
20260503205507 15 338 14.5 27.4 0.00 0.00 0.00 28 1010.7
20260503205011 15 352 9.7 27.4 0.00 0.00 0.00 30 1010.7
20260503204507 15 315 6.4 22.5 0.00 0.00 0.00 29 1010.7
20260503204009 15 343 4.8 27.4 0.00 0.00 0.00 32 1010.7
20260503203510 15 330 3.2 29.0 0.00 0.00 0.00 32 1010.7
20260503203012 15 322 12.9 29.0 0.00 0.00 0.00 29 1010.7
20260503202505 15 308 8.0 24.1 0.00 0.00 0.00 30 1010.7
20260503202009 14 347 8.0 24.1 0.00 0.00 0.00 30 1010.7
20260503201514 15 337 8.0 24.1 0.00 0.00 0.00 29 1010.7
20260503201007 15 329 6.4 24.1 0.00 0.00 0.00 33 1010.7
20260503200506 15 313 8.0 22.5 0.00 0.00 0.00 29 1010.7
20260503200020 14 325 8.0 22.5 0.00 0.00 0.00 29 1010.8
20260503195509 14 298 6.4 22.5 0.00 0.00 0.00 30 1010.9
20260503195006 14 221 8.0 25.7 0.00 0.00 0.00 31 1010.8
20260503194522 14 246 11.3 25.7 0.00 0.00 0.00 31 1010.9
20260503194007 14 319 6.4 33.8 0.00 0.00 0.00 32 1010.9
20260503193510 13 327 9.7 33.8 0.00 0.00 0.00 33 1011.1
20260503193022 13 311 9.7 20.9 0.00 0.00 0.00 31 1011.2
20260503192510 13 327 4.8 22.5 0.00 0.00 0.00 33 1011.0
20260503192008 13 348 4.8 22.5 0.00 0.00 0.00 33 1011.2
20260503191510 13 178 6.4 22.5 0.00 0.00 0.00 33 1011.2
20260503191010 13 323 6.4 16.1 0.00 0.00 0.00 33 1011.2
20260503190508 13 234 0.0 20.9 0.00 0.00 0.00 35 1011.3
20260503190017 13 319 8.0 24.1 0.00 0.00 0.00 31 1011.3
20260503185507 13 324 11.3 24.1 0.00 0.00 0.00 34 1011.4
20260503185009 13 309 3.2 20.9 0.00 0.00 0.00 37 1011.4
20260503184534 13 331 4.8 24.1 0.00 0.00 0.00 37 1011.4
20260503184008 13 309 11.3 24.1 0.00 0.00 0.00 35 1011.4
20260503183509 13 22 6.4 22.5 0.00 0.00 0.00 34 1011.3
20260503183024 13 319 8.0 19.3 0.00 0.00 0.00 33 1011.3
20260503182510 13 5 9.7 19.3 0.00 0.00 0.00 35 1011.3
20260503182006 13 207 1.6 19.3 0.00 0.00 0.00 35 1011.2
20260503181522 12 290 3.2 30.6 0.00 0.00 0.00 37 1011.5
20260503181011 12 252 9.7 30.6 0.00 0.00 0.00 36 1011.4
20260503180506 12 340 6.4 27.4 0.00 0.00 0.00 37 1011.5
20260503180024 12 11 9.7 32.2 0.00 0.00 0.00 36 1011.5
20260503175505 12 313 8.0 32.2 0.00 0.00 0.00 36 1011.6
20260503175010 12 330 3.2 20.9 0.00 0.00 0.00 40 1011.5
20260503174515 12 25 4.8 20.9 0.00 0.00 0.00 39 1011.6
20260503174008 12 336 8.0 32.2 0.00 0.00 0.00 39 1011.7
20260503173508 11 315 12.9 32.2 0.00 0.00 0.00 40 1011.9
20260503173022 11 72 9.7 25.7 0.00 0.00 0.00 39 1011.8
20260503172508 11 315 6.4 24.1 0.00 0.00 0.00 38 1011.8
20260503172011 11 329 9.7 24.1 0.00 0.00 0.00 41 1011.9
20260503171525 11 352 9.7 24.1 0.00 0.00 0.00 39 1011.9
20260503171005 11 28 6.4 25.7 0.00 0.00 0.00 42 1011.9
20260503170508 11 329 14.5 25.7 0.00 0.00 0.00 39 1011.9
20260503151004 10 69 3.2 22.5 0.00 0.00 0.00 43 1012.0
20260503150503 10 352 12.9 22.5 0.00 0.00 0.00 38 1012.1
20260503131003 8 344 6.4 16.1 0.00 0.00 0.00 54 1012.3
20260503130507 7 204 4.8 17.7 0.00 0.00 0.00 54 1012.2
20260503110506 6 332 1.6 12.9 0.00 0.00 0.00 59 1011.8
20260503090510 6 332 1.6 6.4 0.00 0.03 0.00 56 1010.7
20260503081525 7 306 0.0 9.7 0.00 0.03 0.00 55 1010.9
20260503081008 7 305 3.2 11.3 0.00 0.03 0.00 55 1010.9
20260503080507 7 5 1.6 11.3 0.00 0.03 0.00 56 1010.9
20260503072502 7 23 0.0 3.2 0.00 0.03 0.00 56 1010.8